Time,TemperatureF,DewpointF,PressureIn,WindDirection,WindDirectionDegrees,WindSpeedMPH,WindSpeedGustMPH,Humidity,HourlyPrecipIn,Conditions,Clouds,dailyrainin,SoftwareType,DateUTC
2013-03-29 00:00:00,40.3,28.7,30.19,NW,315,1.1,1.3,63,0.00,,,0.00,WUHU216HW,2013-03-29 04:00:00,
2013-03-29 00:01:00,40.3,28.7,30.19,NNW,338,0.9,1.3,63,0.00,,,0.00,WUHU216HW,2013-03-29 04:01:00,
2013-03-29 00:02:00,40.3,28.7,30.19,NNW,338,0.4,0.4,63,0.00,,,0.00,WUHU216HW,2013-03-29 04:02:00,
2013-03-29 00:06:00,40.3,28.7,30.19,NNW,338,0.4,1.3,63,0.00,,,0.00,WUHU216HW,2013-03-29 04:06:00,
2013-03-29 00:11:00,40.3,28.7,30.19,NNW,338,0.4,1.3,63,0.00,,,0.00,WUHU216HW,2013-03-29 04:11:00,
2013-03-29 00:32:00,40.3,28.7,30.20,NNW,338,0.9,0.9,63,0.00,,,0.00,WUHU216HW,2013-03-29 04:32:00,
2013-03-29 00:37:00,40.3,28.7,30.20,NNW,338,0.4,1.1,63,0.00,,,0.00,WUHU216HW,2013-03-29 04:37:00,
2013-03-29 00:42:00,40.3,28.7,30.20,NW,315,1.1,1.6,63,0.00,,,0.00,WUHU216HW,2013-03-29 04:42:00,
2013-03-29 00:47:00,40.3,28.7,30.20,NW,315,0.4,1.6,63,0.00,,,0.00,WUHU216HW,2013-03-29 04:47:00,
2013-03-29 00:52:00,40.3,28.7,30.19,NNW,338,0.7,1.1,63,0.00,,,0.00,WUHU216HW,2013-03-29 04:52:00,
2013-03-29 00:57:00,40.3,28.7,30.20,NNW,338,0.9,1.1,63,0.00,,,0.00,WUHU216HW,2013-03-29 04:57:00,
2013-03-29 01:02:00,40.5,28.4,30.20,NNW,338,1.1,2.2,62,0.00,,,0.00,WUHU216HW,2013-03-29 05:02:00,
2013-03-29 01:07:00,40.5,28.4,30.20,NNW,338,0.7,2.2,62,0.00,,,0.00,WUHU216HW,2013-03-29 05:07:00,
2013-03-29 01:12:00,40.5,28.4,30.20,NW,315,1.1,1.1,62,0.00,,,0.00,WUHU216HW,2013-03-29 05:12:00,
2013-03-29 01:17:00,40.7,28.6,30.20,NW,315,0.4,1.1,62,0.00,,,0.00,WUHU216HW,2013-03-29 05:17:00,
2013-03-29 01:22:00,40.5,28.9,30.20,NW,315,0.4,0.9,63,0.00,,,0.00,WUHU216HW,2013-03-29 05:22:00,
2013-03-29 01:27:00,40.5,28.9,30.20,NW,315,0.7,0.9,63,0.00,,,0.00,WUHU216HW,2013-03-29 05:27:00,
2013-03-29 01:32:00,40.5,28.9,30.20,NW,315,0.7,1.1,63,0.00,,,0.00,WUHU216HW,2013-03-29 05:32:00,
2013-03-29 01:37:00,40.5,28.9,30.20,West,270,0.4,1.1,63,0.00,,,0.00,WUHU216HW,2013-03-29 05:37:00,
2013-03-29 01:42:00,40.5,28.4,30.20,NW,315,0.0,0.9,62,0.00,,,0.00,WUHU216HW,2013-03-29 05:42:00,
2013-03-29 01:47:00,40.5,28.4,30.20,NNW,338,0.4,0.9,62,0.00,,,0.00,WUHU216HW,2013-03-29 05:47:00,
2013-03-29 01:52:00,40.5,28.4,30.20,North,0,0.7,0.9,62,0.00,,,0.00,WUHU216HW,2013-03-29 05:52:00,
2013-03-29 01:57:00,40.3,28.3,30.20,North,0,0.4,0.7,62,0.00,,,0.00,WUHU216HW,2013-03-29 05:57:00,
2013-03-29 02:03:00,40.3,28.3,30.20,NNW,338,0.0,0.7,62,0.00,,,0.00,WUHU216HW,2013-03-29 06:03:00,
2013-03-29 02:08:00,40.3,28.7,30.20,NNW,338,0.7,0.7,63,0.00,,,0.00,WUHU216HW,2013-03-29 06:08:00,
2013-03-29 02:13:00,40.3,28.7,30.20,NNW,338,0.2,0.7,63,0.00,,,0.00,WUHU216HW,2013-03-29 06:13:00,
2013-03-29 02:18:00,40.1,28.5,30.20,NNW,338,0.0,0.4,63,0.00,,,0.00,WUHU216HW,2013-03-29 06:18:00,
2013-03-29 02:23:00,40.1,28.5,30.19,NNW,338,0.0,0.4,63,0.00,,,0.00,WUHU216HW,2013-03-29 06:23:00,
2013-03-29 02:28:00,40.0,28.4,30.19,NNW,338,0.0,0.4,63,0.00,,,0.00,WUHU216HW,2013-03-29 06:28:00,
2013-03-29 02:33:00,40.0,28.4,30.20,NNW,338,0.0,0.4,63,0.00,,,0.00,WUHU216HW,2013-03-29 06:33:00,
2013-03-29 02:38:00,39.8,28.2,30.19,ENE,68,0.4,0.4,63,0.00,,,0.00,WUHU216HW,2013-03-29 06:38:00,
2013-03-29 02:43:00,39.6,28.0,30.20,NNE,23,0.9,1.3,63,0.00,,,0.00,WUHU216HW,2013-03-29 06:43:00,
2013-03-29 02:48:00,39.4,27.8,30.20,NNE,23,0.4,1.3,63,0.00,,,0.00,WUHU216HW,2013-03-29 06:48:00,
2013-03-29 02:53:00,39.4,27.8,30.20,NE,45,0.7,1.1,63,0.00,,,0.00,WUHU216HW,2013-03-29 06:53:00,
2013-03-29 02:58:00,39.2,27.6,30.19,NNE,23,0.7,0.9,63,0.00,,,0.00,WUHU216HW,2013-03-29 06:58:00,
2013-03-29 03:03:00,39.2,27.6,30.19,NNE,23,0.4,0.9,63,0.00,,,0.00,WUHU216HW,2013-03-29 07:03:00,
2013-03-29 03:08:00,39.1,27.5,30.19,NE,45,0.4,0.4,63,0.00,,,0.00,WUHU216HW,2013-03-29 07:08:00,
2013-03-29 03:13:00,39.1,27.5,30.19,NNE,23,0.4,1.1,63,0.00,,,0.00,WUHU216HW,2013-03-29 07:13:00,
2013-03-29 03:18:00,38.7,27.1,30.19,NNE,23,0.4,1.1,63,0.00,,,0.00,WUHU216HW,2013-03-29 07:18:00,
2013-03-29 03:23:00,38.5,26.9,30.19,NNE,23,1.1,1.8,63,0.00,,,0.00,WUHU216HW,2013-03-29 07:23:00,
2013-03-29 03:28:00,38.5,27.4,30.19,North,0,0.2,1.8,64,0.00,,,0.00,WUHU216HW,2013-03-29 07:28:00,
2013-03-29 03:33:00,38.5,27.4,30.19,North,0,0.0,0.4,64,0.00,,,0.00,WUHU216HW,2013-03-29 07:33:00,
2013-03-29 03:38:00,38.5,27.4,30.19,NNE,23,0.7,0.7,64,0.00,,,0.00,WUHU216HW,2013-03-29 07:38:00,
2013-03-29 03:43:00,38.3,27.2,30.19,North,0,0.0,0.9,64,0.00,,,0.00,WUHU216HW,2013-03-29 07:43:00,
2013-03-29 03:48:00,38.3,27.2,30.19,North,0,0.0,0.9,64,0.00,,,0.00,WUHU216HW,2013-03-29 07:48:00,
2013-03-29 03:53:00,38.3,27.2,30.19,North,0,0.0,0.2,64,0.00,,,0.00,WUHU216HW,2013-03-29 07:53:00,
2013-03-29 03:58:00,38.3,27.2,30.19,North,0,0.0,0.2,64,0.00,,,0.00,WUHU216HW,2013-03-29 07:58:00,
2013-03-29 04:03:00,38.2,27.0,30.19,North,0,0.0,0.0,64,0.00,,,0.00,WUHU216HW,2013-03-29 08:03:00,
2013-03-29 04:08:00,38.2,27.4,30.19,North,0,0.0,0.0,65,0.00,,,0.00,WUHU216HW,2013-03-29 08:08:00,
2013-03-29 04:13:00,38.2,27.4,30.19,North,0,0.0,0.0,65,0.00,,,0.00,WUHU216HW,2013-03-29 08:13:00,
2013-03-29 04:18:00,38.0,27.2,30.19,North,0,0.0,0.0,65,0.00,,,0.00,WUHU216HW,2013-03-29 08:18:00,
2013-03-29 04:23:00,38.0,27.2,30.19,North,0,0.0,0.0,65,0.00,,,0.00,WUHU216HW,2013-03-29 08:23:00,
2013-03-29 04:28:00,38.0,27.2,30.19,North,0,0.0,0.0,65,0.00,,,0.00,WUHU216HW,2013-03-29 08:28:00,
2013-03-29 04:33:00,38.0,27.2,30.19,North,0,0.0,0.0,65,0.00,,,0.00,WUHU216HW,2013-03-29 08:33:00,
2013-03-29 04:38:00,37.8,27.5,30.19,North,0,0.0,0.0,66,0.00,,,0.00,WUHU216HW,2013-03-29 08:38:00,
2013-03-29 04:43:00,37.8,27.5,30.19,North,0,0.0,0.0,66,0.00,,,0.00,WUHU216HW,2013-03-29 08:43:00,
2013-03-29 04:48:00,37.8,27.5,30.19,North,0,0.0,0.0,66,0.00,,,0.00,WUHU216HW,2013-03-29 08:48:00,
2013-03-29 04:53:00,37.8,27.5,30.19,North,0,0.0,0.0,66,0.00,,,0.00,WUHU216HW,2013-03-29 08:53:00,
2013-03-29 04:58:00,37.8,27.8,30.19,North,0,0.0,0.0,67,0.00,,,0.00,WUHU216HW,2013-03-29 08:58:00,
2013-03-29 05:03:00,37.6,27.6,30.19,North,0,0.0,0.4,67,0.00,,,0.00,WUHU216HW,2013-03-29 09:03:00,
2013-03-29 05:08:00,37.6,27.6,30.19,North,0,0.0,0.4,67,0.00,,,0.00,WUHU216HW,2013-03-29 09:08:00,
2013-03-29 05:13:00,37.6,27.6,30.19,North,0,0.0,0.0,67,0.00,,,0.00,WUHU216HW,2013-03-29 09:13:00,
2013-03-29 05:18:00,37.6,27.6,30.19,North,0,0.0,0.0,67,0.00,,,0.00,WUHU216HW,2013-03-29 09:18:00,
2013-03-29 05:23:00,37.6,27.6,30.19,North,0,0.0,0.0,67,0.00,,,0.00,WUHU216HW,2013-03-29 09:23:00,
2013-03-29 05:28:00,37.6,27.6,30.19,North,0,0.0,0.0,67,0.00,,,0.00,WUHU216HW,2013-03-29 09:28:00,
2013-03-29 05:33:00,37.6,27.6,30.19,WNW,293,0.0,0.0,67,0.00,,,0.00,WUHU216HW,2013-03-29 09:33:00,
2013-03-29 05:38:00,37.6,28.0,30.19,WNW,293,0.0,0.0,68,0.00,,,0.00,WUHU216HW,2013-03-29 09:38:00,
2013-03-29 05:43:00,37.4,27.9,30.19,WNW,293,0.0,0.2,68,0.00,,,0.00,WUHU216HW,2013-03-29 09:43:00,
2013-03-29 05:48:00,37.3,27.7,30.19,NW,315,0.0,0.2,68,0.00,,,0.00,WUHU216HW,2013-03-29 09:48:00,
2013-03-29 05:53:00,37.1,28.9,30.20,NW,315,0.7,0.7,72,0.00,,,0.00,WUHU216HW,2013-03-29 09:53:00,
2013-03-29 05:58:00,37.1,28.9,30.20,NW,315,1.1,1.1,72,0.00,,,0.00,WUHU216HW,2013-03-29 09:58:00,
2013-03-29 06:03:00,37.3,28.8,30.20,NW,315,0.4,1.1,71,0.00,,,0.00,WUHU216HW,2013-03-29 10:03:00,
2013-03-29 06:08:00,37.4,29.0,30.19,NW,315,0.7,0.9,71,0.00,,,0.00,WUHU216HW,2013-03-29 10:08:00,
2013-03-29 06:13:00,37.8,29.0,30.19,NW,315,0.7,0.9,70,0.00,,,0.00,WUHU216HW,2013-03-29 10:13:00,
2013-03-29 06:18:00,38.0,28.7,30.19,WNW,293,0.4,0.9,69,0.00,,,0.00,WUHU216HW,2013-03-29 10:18:00,
2013-03-29 06:23:00,38.2,28.5,30.19,WNW,293,0.4,0.9,68,0.00,,,0.00,WUHU216HW,2013-03-29 10:23:00,
2013-03-29 06:28:00,38.3,28.7,30.19,WNW,293,0.2,0.9,68,0.00,,,0.00,WUHU216HW,2013-03-29 10:28:00,
2013-03-29 06:33:00,38.3,28.3,30.19,WNW,293,0.0,0.9,67,0.00,,,0.00,WUHU216HW,2013-03-29 10:33:00,
2013-03-29 06:38:00,38.2,28.5,30.19,West,270,0.4,0.7,68,0.00,,,0.00,WUHU216HW,2013-03-29 10:38:00,
2013-03-29 06:43:00,37.8,28.5,30.19,NW,315,0.2,1.3,69,0.00,,,0.00,WUHU216HW,2013-03-29 10:43:00,
2013-03-29 06:48:00,37.8,29.0,30.19,WNW,293,0.7,1.3,70,0.00,,,0.00,WUHU216HW,2013-03-29 10:48:00,
2013-03-29 06:53:00,37.8,29.0,30.19,West,270,0.2,0.9,70,0.00,,,0.00,WUHU216HW,2013-03-29 10:53:00,
2013-03-29 06:58:00,38.0,28.7,30.19,WNW,293,0.9,0.9,69,0.00,,,0.00,WUHU216HW,2013-03-29 10:58:00,
2013-03-29 07:03:00,38.2,28.5,30.20,NW,315,0.9,0.9,68,0.00,,,0.00,WUHU216HW,2013-03-29 11:03:00,
2013-03-29 07:08:00,38.5,28.8,30.20,NW,315,0.0,0.9,68,0.00,,,0.00,WUHU216HW,2013-03-29 11:08:00,
2013-03-29 07:13:00,38.3,28.3,30.20,WNW,293,0.0,0.4,67,0.00,,,0.00,WUHU216HW,2013-03-29 11:13:00,
2013-03-29 07:14:00,38.3,28.3,30.20,WNW,293,0.0,0.0,67,0.00,,,0.00,WUHU216HW,2013-03-29 11:14:00,
2013-03-29 07:19:00,38.3,28.3,30.20,WNW,293,0.0,0.4,67,0.00,,,0.00,WUHU216HW,2013-03-29 11:19:00,
2013-03-29 07:23:00,38.3,28.3,30.20,WNW,293,0.0,0.0,67,0.00,,,0.00,WUHU216HW,2013-03-29 11:23:00,
2013-03-29 07:44:00,38.3,29.1,30.20,NNW,338,0.4,0.4,69,0.00,,,0.00,WUHU216HW,2013-03-29 11:44:00,
2013-03-29 07:49:00,38.5,29.3,30.20,West,270,0.2,1.1,69,0.00,,,0.00,WUHU216HW,2013-03-29 11:49:00,
2013-03-29 07:54:00,38.9,29.5,30.20,West,270,0.9,1.1,69,0.00,,,0.00,WUHU216HW,2013-03-29 11:54:00,
2013-03-29 07:59:00,39.4,29.7,30.20,NW,315,0.9,1.1,68,0.00,,,0.00,WUHU216HW,2013-03-29 11:59:00,
2013-03-29 08:04:00,40.1,29.6,30.20,WSW,248,1.1,2.0,66,0.00,,,0.00,WUHU216HW,2013-03-29 12:04:00,
2013-03-29 08:09:00,40.7,29.4,30.21,NW,315,1.8,2.0,64,0.00,,,0.00,WUHU216HW,2013-03-29 12:09:00,
2013-03-29 08:14:00,41.0,29.8,30.20,WNW,293,1.3,2.0,64,0.00,,,0.00,WUHU216HW,2013-03-29 12:14:00,
2013-03-29 08:19:00,41.2,30.3,30.20,NW,315,1.1,2.7,65,0.00,,,0.00,WUHU216HW,2013-03-29 12:19:00,
2013-03-29 08:24:00,41.4,29.7,30.20,NW,315,2.9,2.9,63,0.00,,,0.00,WUHU216HW,2013-03-29 12:24:00,
2013-03-29 08:29:00,41.6,29.9,30.21,NNW,338,0.4,2.9,63,0.00,,,0.00,WUHU216HW,2013-03-29 12:29:00,
2013-03-29 08:34:00,41.8,29.7,30.20,NNW,338,1.6,2.5,62,0.00,,,0.00,WUHU216HW,2013-03-29 12:34:00,
2013-03-29 08:39:00,42.1,30.0,30.20,NW,315,0.4,2.0,62,0.00,,,0.00,WUHU216HW,2013-03-29 12:39:00,
2013-03-29 08:44:00,42.1,30.0,30.21,West,270,1.1,1.1,62,0.00,,,0.00,WUHU216HW,2013-03-29 12:44:00,
2013-03-29 08:49:00,42.5,30.7,30.21,WNW,293,0.9,1.3,63,0.00,,,0.00,WUHU216HW,2013-03-29 12:49:00,
2013-03-29 08:54:00,42.7,30.5,30.21,West,270,1.6,1.6,62,0.00,,,0.00,WUHU216HW,2013-03-29 12:54:00,
2013-03-29 08:59:00,42.8,30.2,30.21,WNW,293,2.5,2.5,61,0.00,,,0.00,WUHU216HW,2013-03-29 12:59:00,
2013-03-29 09:04:00,43.0,30.1,30.21,WNW,293,1.1,2.5,60,0.00,,,0.00,WUHU216HW,2013-03-29 13:04:00,
2013-03-29 09:09:00,43.2,30.2,30.21,WNW,293,0.4,2.2,60,0.00,,,0.00,WUHU216HW,2013-03-29 13:09:00,
2013-03-29 09:14:00,43.6,30.2,30.20,NW,315,1.8,2.2,59,0.00,,,0.00,WUHU216HW,2013-03-29 13:14:00,
2013-03-29 09:19:00,43.7,30.3,30.21,WSW,248,2.0,2.0,59,0.00,,,0.00,WUHU216HW,2013-03-29 13:19:00,
2013-03-29 09:24:00,43.9,30.5,30.21,West,270,1.8,2.0,59,0.00,,,0.00,WUHU216HW,2013-03-29 13:24:00,
2013-03-29 09:29:00,44.1,30.2,30.20,NW,315,1.1,1.8,58,0.00,,,0.00,WUHU216HW,2013-03-29 13:29:00,
2013-03-29 09:34:00,44.3,30.4,30.21,NW,315,0.7,1.8,58,0.00,,,0.00,WUHU216HW,2013-03-29 13:34:00,
2013-03-29 09:39:00,44.5,30.6,30.21,NW,315,0.7,1.8,58,0.00,,,0.00,WUHU216HW,2013-03-29 13:39:00,
2013-03-29 09:44:00,44.8,30.1,30.20,NW,315,1.8,2.5,56,0.00,,,0.00,WUHU216HW,2013-03-29 13:44:00,
2013-03-29 09:49:00,45.0,30.3,30.20,NW,315,2.7,2.7,56,0.00,,,0.00,WUHU216HW,2013-03-29 13:49:00,
2013-03-29 09:54:00,45.4,30.5,30.20,West,270,2.5,2.9,56,0.00,,,0.00,WUHU216HW,2013-03-29 13:54:00,
2013-03-29 09:59:00,45.4,30.5,30.20,West,270,2.9,2.9,56,0.00,,,0.00,WUHU216HW,2013-03-29 13:59:00,
2013-03-29 10:02:00,45.7,30.9,30.20,NW,315,1.6,1.6,56,0.00,,,0.00,WUHU216HW,2013-03-29 14:02:00,
2013-03-29 10:04:00,45.7,30.9,30.20,NW,315,1.6,2.9,56,0.00,,,0.00,WUHU216HW,2013-03-29 14:04:00,
2013-03-29 10:09:00,45.7,30.9,30.20,NW,315,1.6,1.6,56,0.00,,,0.00,WUHU216HW,2013-03-29 14:09:00,
2013-03-29 10:21:00,46.3,30.9,30.20,NW,315,2.2,2.2,55,0.00,,,0.00,WUHU216HW,2013-03-29 14:21:00,
2013-03-29 10:26:00,46.4,30.2,30.20,NNW,338,3.8,3.8,53,0.00,,,0.00,WUHU216HW,2013-03-29 14:26:00,
2013-03-29 10:31:00,46.4,30.2,30.20,NNW,338,3.8,3.8,53,0.00,,,0.00,WUHU216HW,2013-03-29 14:31:00,
2013-03-29 10:36:00,46.8,30.5,30.20,North,0,2.5,2.9,53,0.00,,,0.00,WUHU216HW,2013-03-29 14:36:00,
2013-03-29 10:41:00,46.8,30.1,30.20,NW,315,4.0,4.0,52,0.00,,,0.00,WUHU216HW,2013-03-29 14:41:00,
2013-03-29 10:46:00,46.8,31.0,30.20,NW,315,0.9,4.0,54,0.00,,,0.00,WUHU216HW,2013-03-29 14:46:00,
2013-03-29 10:51:00,47.3,31.0,30.20,WSW,248,2.5,2.5,53,0.00,,,0.00,WUHU216HW,2013-03-29 14:51:00,
2013-03-29 10:57:00,47.7,30.4,30.20,NNW,338,1.8,2.9,51,0.00,,,0.00,WUHU216HW,2013-03-29 14:57:00,
2013-03-29 11:02:00,48.1,31.7,30.20,North,0,2.2,3.6,53,0.00,,,0.00,WUHU216HW,2013-03-29 15:02:00,
2013-03-29 11:07:00,48.4,31.5,30.20,NW,315,0.4,3.6,52,0.00,,,0.00,WUHU216HW,2013-03-29 15:07:00,
2013-03-29 11:12:00,49.1,30.8,30.19,WNW,293,3.8,3.8,49,0.00,,,0.00,WUHU216HW,2013-03-29 15:12:00,
2013-03-29 11:17:00,49.1,31.8,30.20,West,270,2.5,3.8,51,0.00,,,0.00,WUHU216HW,2013-03-29 15:17:00,
2013-03-29 11:22:00,49.3,31.5,30.19,WNW,293,1.1,2.9,50,0.00,,,0.00,WUHU216HW,2013-03-29 15:22:00,
2013-03-29 11:27:00,50.0,31.7,30.19,SSW,203,2.9,3.8,49,0.00,,,0.00,WUHU216HW,2013-03-29 15:27:00,
2013-03-29 11:32:00,50.6,32.1,30.19,NW,315,0.2,3.8,49,0.00,,,0.00,WUHU216HW,2013-03-29 15:32:00,
2013-03-29 11:37:00,50.8,30.6,30.19,WNW,293,4.3,4.3,46,0.00,,,0.00,WUHU216HW,2013-03-29 15:37:00,
2013-03-29 11:43:00,51.1,32.0,30.19,NNE,23,1.1,4.3,48,0.00,,,0.00,WUHU216HW,2013-03-29 15:43:00,
2013-03-29 11:48:00,51.5,31.3,30.19,North,0,3.1,4.3,46,0.00,,,0.00,WUHU216HW,2013-03-29 15:48:00,
2013-03-29 11:54:00,53.1,32.8,30.18,West,270,3.8,3.8,46,0.00,,,0.00,WUHU216HW,2013-03-29 15:54:00,
2013-03-29 11:59:00,53.6,31.6,30.18,NW,315,5.4,5.8,43,0.00,,,0.00,WUHU216HW,2013-03-29 15:59:00,
2013-03-29 12:04:00,52.6,32.2,30.18,NW,315,2.5,5.8,46,0.00,,,0.00,WUHU216HW,2013-03-29 16:04:00,
2013-03-29 12:09:00,52.7,32.4,30.18,North,0,2.5,4.7,46,0.00,,,0.00,WUHU216HW,2013-03-29 16:09:00,
2013-03-29 12:14:00,52.9,30.9,30.17,NW,315,2.2,5.4,43,0.00,,,0.00,WUHU216HW,2013-03-29 16:14:00,
2013-03-29 12:19:00,52.4,30.4,30.18,NNW,338,3.4,7.2,43,0.00,,,0.00,WUHU216HW,2013-03-29 16:19:00,
2013-03-29 12:24:00,52.2,29.7,30.17,NNW,338,2.7,7.2,42,0.00,,,0.00,WUHU216HW,2013-03-29 16:24:00,
2013-03-29 12:28:00,52.2,30.8,30.17,NNE,23,6.3,6.5,44,0.00,,,0.00,WUHU216HW,2013-03-29 16:28:00,
2013-03-29 12:33:00,52.9,29.8,30.17,NW,315,6.9,6.9,41,0.00,,,0.00,WUHU216HW,2013-03-29 16:33:00,
2013-03-29 12:38:00,53.3,30.7,30.16,NNW,338,6.9,6.9,42,0.00,,,0.00,WUHU216HW,2013-03-29 16:38:00,
2013-03-29 12:41:00,53.3,28.2,30.17,NNW,338,6.9,6.9,38,0.00,,,0.00,WUHU216HW,2013-03-29 16:41:00,
2013-03-29 12:43:00,53.3,28.2,30.17,NNW,338,6.9,6.9,38,0.00,,,0.00,WUHU216HW,2013-03-29 16:43:00,
2013-03-29 12:48:00,53.3,28.2,30.17,NNW,338,6.9,6.9,38,0.00,,,0.00,WUHU216HW,2013-03-29 16:48:00,
2013-03-29 12:57:00,55.3,30.0,30.16,South,180,4.5,4.5,38,0.00,,,0.00,WUHU216HW,2013-03-29 16:57:00,
2013-03-29 13:02:00,54.4,28.4,30.16,NW,315,5.8,5.8,37,0.00,,,0.00,WUHU216HW,2013-03-29 17:02:00,
2013-03-29 13:07:00,54.0,28.2,30.16,WNW,293,5.1,5.8,37,0.00,,,0.00,WUHU216HW,2013-03-29 17:07:00,
2013-03-29 13:12:00,52.9,28.5,30.16,North,0,4.3,5.1,39,0.00,,,0.00,WUHU216HW,2013-03-29 17:12:00,
2013-03-29 13:17:00,52.9,29.3,30.16,NNW,338,5.6,5.6,40,0.00,,,0.00,WUHU216HW,2013-03-29 17:17:00,
2013-03-29 15:00:00,53.6,31.0,30.13,NW,315,4.0,4.0,42,0.00,,,0.00,WUHU216HW,2013-03-29 19:00:00,
2013-03-29 15:05:00,53.6,31.0,30.13,NW,315,4.0,4.0,42,0.00,,,0.00,WUHU216HW,2013-03-29 19:05:00,
2013-03-29 16:00:00,54.2,27.6,30.11,NNW,338,7.6,7.6,36,0.00,,,0.00,WUHU216HW,2013-03-29 20:00:00,
2013-03-29 16:05:00,54.5,27.9,30.11,North,0,2.5,7.6,36,0.00,,,0.00,WUHU216HW,2013-03-29 20:05:00,
2013-03-29 16:10:00,53.8,25.9,30.11,North,0,0.9,7.6,34,0.00,,,0.00,WUHU216HW,2013-03-29 20:10:00,
2013-03-29 16:15:00,53.6,27.2,30.11,North,0,1.8,6.5,36,0.00,,,0.00,WUHU216HW,2013-03-29 20:15:00,
2013-03-29 16:21:00,53.6,25.7,30.11,NNW,338,3.1,4.0,34,0.00,,,0.00,WUHU216HW,2013-03-29 20:21:00,
2013-03-29 16:26:00,53.6,25.7,30.11,NNW,338,5.4,5.4,34,0.00,,,0.00,WUHU216HW,2013-03-29 20:26:00,
2013-03-29 16:31:00,54.4,25.7,30.10,NNW,338,3.1,7.6,33,0.00,,,0.00,WUHU216HW,2013-03-29 20:31:00,
2013-03-29 16:37:00,54.4,25.0,30.10,NW,315,5.8,7.6,32,0.00,,,0.00,WUHU216HW,2013-03-29 20:37:00,
2013-03-29 16:40:00,54.4,25.7,30.10,NNW,338,4.0,4.0,33,0.00,,,0.00,WUHU216HW,2013-03-29 20:40:00,
2013-03-29 16:42:00,54.4,25.7,30.10,NNW,338,4.0,7.2,33,0.00,,,0.00,WUHU216HW,2013-03-29 20:42:00,
2013-03-29 16:47:00,54.4,25.7,30.10,NNW,338,4.0,7.2,33,0.00,,,0.00,WUHU216HW,2013-03-29 20:47:00,
2013-03-29 18:00:00,52.4,27.4,30.10,NNW,338,1.3,1.3,38,0.00,,,0.00,WUHU216HW,2013-03-29 22:00:00,
2013-03-29 18:05:00,52.4,27.4,30.10,NNW,338,1.3,1.3,38,0.00,,,0.00,WUHU216HW,2013-03-29 22:05:00,
2013-03-29 19:00:00,51.3,27.8,30.11,NNW,338,1.8,1.8,40,0.00,,,0.00,WUHU216HW,2013-03-29 23:00:00,
2013-03-29 19:05:00,51.1,27.6,30.11,North,0,2.0,2.0,40,0.00,,,0.00,WUHU216HW,2013-03-29 23:05:00,
2013-03-29 19:10:00,50.9,27.5,30.12,North,0,1.3,2.9,40,0.00,,,0.00,WUHU216HW,2013-03-29 23:10:00,
2013-03-29 19:15:00,50.8,27.3,30.12,NNW,338,1.1,3.6,40,0.00,,,0.00,WUHU216HW,2013-03-29 23:15:00,
2013-03-29 19:20:00,50.4,27.0,30.12,NNW,338,0.4,3.6,40,0.00,,,0.00,WUHU216HW,2013-03-29 23:20:00,
2013-03-29 19:25:00,50.2,26.8,30.11,NNW,338,1.1,1.6,40,0.00,,,0.00,WUHU216HW,2013-03-29 23:25:00,
2013-03-29 19:30:00,49.9,25.8,30.12,NNW,338,1.1,1.3,39,0.00,,,0.00,WUHU216HW,2013-03-29 23:30:00,
2013-03-29 19:35:00,49.7,25.7,30.12,NNW,338,1.1,1.8,39,0.00,,,0.00,WUHU216HW,2013-03-29 23:35:00,
2013-03-29 19:40:00,49.5,25.5,30.12,NNW,338,0.2,1.8,39,0.00,,,0.00,WUHU216HW,2013-03-29 23:40:00,
2013-03-29 19:45:00,49.3,25.3,30.12,WNW,293,1.1,1.1,39,0.00,,,0.00,WUHU216HW,2013-03-29 23:45:00,
2013-03-29 19:50:00,49.1,25.1,30.12,NW,315,0.9,1.1,39,0.00,,,0.00,WUHU216HW,2013-03-29 23:50:00,
2013-03-29 19:55:00,49.0,25.7,30.12,NW,315,0.9,1.1,40,0.00,,,0.00,WUHU216HW,2013-03-29 23:55:00,
2013-03-29 20:00:00,48.8,25.5,30.12,NW,315,0.9,1.1,40,0.00,,,0.00,WUHU216HW,2013-03-30 00:00:00,
2013-03-29 20:05:00,48.6,25.4,30.12,NW,315,0.4,0.9,40,0.00,,,0.00,WUHU216HW,2013-03-30 00:05:00,
2013-03-29 20:10:00,48.4,25.2,30.12,NW,315,0.4,0.7,40,0.00,,,0.00,WUHU216HW,2013-03-30 00:10:00,
2013-03-29 20:15:00,48.2,25.6,30.12,NW,315,0.0,0.4,41,0.00,,,0.00,WUHU216HW,2013-03-30 00:15:00,
2013-03-29 20:20:00,47.9,25.2,30.12,WNW,293,0.0,0.0,41,0.00,,,0.00,WUHU216HW,2013-03-30 00:20:00,
2013-03-29 20:25:00,47.5,24.9,30.13,WNW,293,0.0,0.0,41,0.00,,,0.00,WUHU216HW,2013-03-30 00:25:00,
2013-03-29 20:30:00,47.0,24.9,30.13,WSW,248,0.0,0.2,42,0.00,,,0.00,WUHU216HW,2013-03-30 00:30:00,
2013-03-29 20:35:00,46.6,24.7,30.13,WSW,248,0.4,0.4,42,0.00,,,0.00,WUHU216HW,2013-03-30 00:35:00,
2013-03-29 20:40:00,46.4,25.0,30.13,West,270,0.4,0.4,43,0.00,,,0.00,WUHU216HW,2013-03-30 00:40:00,
2013-03-29 20:45:00,46.4,25.0,30.13,West,270,0.4,0.4,43,0.00,,,0.00,WUHU216HW,2013-03-30 00:45:00,
2013-03-29 20:50:00,46.4,25.6,30.13,NW,315,0.4,1.6,44,0.00,,,0.00,WUHU216HW,2013-03-30 00:50:00,
2013-03-29 20:55:00,46.4,25.6,30.13,NW,315,0.7,1.6,44,0.00,,,0.00,WUHU216HW,2013-03-30 00:55:00,
2013-03-29 21:00:00,46.4,25.0,30.14,NW,315,1.1,1.1,43,0.00,,,0.00,WUHU216HW,2013-03-30 01:00:00,
2013-03-29 21:05:00,46.6,25.2,30.14,WNW,293,0.0,1.1,43,0.00,,,0.00,WUHU216HW,2013-03-30 01:05:00,
2013-03-29 21:10:00,46.4,25.0,30.14,SW,225,1.8,1.8,43,0.00,,,0.00,WUHU216HW,2013-03-30 01:10:00,
2013-03-29 21:15:00,46.1,25.2,30.14,WSW,248,0.0,1.8,44,0.00,,,0.00,WUHU216HW,2013-03-30 01:15:00,
2013-03-29 21:20:00,45.7,24.9,30.14,WSW,248,0.4,1.6,44,0.00,,,0.00,WUHU216HW,2013-03-30 01:20:00,
2013-03-29 21:25:00,45.2,24.9,30.14,WSW,248,0.0,0.4,45,0.00,,,0.00,WUHU216HW,2013-03-30 01:25:00,
2013-03-29 21:30:00,45.0,24.9,30.14,WSW,248,0.0,0.4,45,0.00,,,0.00,WUHU216HW,2013-03-30 01:30:00,
2013-03-29 21:35:00,44.3,24.1,30.14,WSW,248,0.0,0.0,45,0.00,,,0.00,WUHU216HW,2013-03-30 01:35:00,
2013-03-29 21:40:00,43.9,24.4,30.15,WSW,248,0.0,0.2,46,0.00,,,0.00,WUHU216HW,2013-03-30 01:40:00,
2013-03-29 21:45:00,43.6,24.0,30.15,WSW,248,0.0,0.2,46,0.00,,,0.00,WUHU216HW,2013-03-30 01:45:00,
2013-03-29 21:50:00,43.4,24.4,30.15,WSW,248,0.0,0.0,47,0.00,,,0.00,WUHU216HW,2013-03-30 01:50:00,
2013-03-29 21:55:00,43.0,24.7,30.15,WSW,248,0.0,0.0,48,0.00,,,0.00,WUHU216HW,2013-03-30 01:55:00,
2013-03-29 22:00:00,42.5,24.1,30.15,WSW,248,0.0,0.0,48,0.00,,,0.00,WUHU216HW,2013-03-30 02:00:00,
2013-03-29 22:05:00,42.1,24.3,30.15,WSW,248,0.0,0.0,49,0.00,,,0.00,WUHU216HW,2013-03-30 02:05:00,
2013-03-29 22:10:00,41.8,23.9,30.15,WSW,248,0.0,0.0,49,0.00,,,0.00,WUHU216HW,2013-03-30 02:10:00,
2013-03-29 22:16:00,41.4,23.6,30.15,WSW,248,0.0,0.0,49,0.00,,,0.00,WUHU216HW,2013-03-30 02:16:00,
2013-03-29 22:21:00,41.4,23.6,30.15,WSW,248,0.0,0.0,49,0.00,,,0.00,WUHU216HW,2013-03-30 02:21:00,
2013-03-29 22:26:00,41.0,23.2,30.15,WSW,248,0.0,0.0,49,0.00,,,0.00,WUHU216HW,2013-03-30 02:26:00,
2013-03-29 22:31:00,40.7,23.4,30.15,WSW,248,0.0,0.0,50,0.00,,,0.00,WUHU216HW,2013-03-30 02:31:00,
2013-03-29 22:36:00,40.7,23.4,30.15,WSW,248,0.0,0.0,50,0.00,,,0.00,WUHU216HW,2013-03-30 02:36:00,
2013-03-29 22:40:00,40.5,23.8,30.15,WSW,248,0.0,0.0,51,0.00,,,0.00,WUHU216HW,2013-03-30 02:40:00,
2013-03-29 22:46:00,40.3,23.6,30.15,WSW,248,0.0,0.0,51,0.00,,,0.00,WUHU216HW,2013-03-30 02:46:00,
2013-03-29 22:51:00,40.3,23.6,30.15,WSW,248,0.0,0.0,51,0.00,,,0.00,WUHU216HW,2013-03-30 02:51:00,
2013-03-29 22:56:00,40.0,23.7,30.15,WSW,248,0.0,0.0,52,0.00,,,0.00,WUHU216HW,2013-03-30 02:56:00,
2013-03-29 23:01:00,39.8,23.5,30.15,WSW,248,0.0,0.0,52,0.00,,,0.00,WUHU216HW,2013-03-30 03:01:00,
2013-03-29 23:05:00,39.6,23.3,30.15,WSW,248,0.0,0.0,52,0.00,,,0.00,WUHU216HW,2013-03-30 03:05:00,
2013-03-29 23:10:00,39.4,23.1,30.15,WSW,248,0.0,0.0,52,0.00,,,0.00,WUHU216HW,2013-03-30 03:10:00,
2013-03-29 23:15:00,39.4,23.1,30.15,WSW,248,0.0,0.0,52,0.00,,,0.00,WUHU216HW,2013-03-30 03:15:00,
2013-03-29 23:20:00,39.4,23.1,30.15,WSW,248,0.0,0.0,52,0.00,,,0.00,WUHU216HW,2013-03-30 03:20:00,
2013-03-29 23:26:00,39.4,23.1,30.15,WSW,248,0.0,0.0,52,0.00,,,0.00,WUHU216HW,2013-03-30 03:26:00,
2013-03-29 23:30:00,39.4,23.1,30.15,WSW,248,0.0,0.0,52,0.00,,,0.00,WUHU216HW,2013-03-30 03:30:00,
2013-03-29 23:35:00,39.6,23.3,30.15,WSW,248,0.0,0.0,52,0.00,,,0.00,WUHU216HW,2013-03-30 03:35:00,
2013-03-29 23:40:00,39.4,23.1,30.15,WSW,248,0.0,0.0,52,0.00,,,0.00,WUHU216HW,2013-03-30 03:40:00,
2013-03-29 23:46:00,39.4,23.6,30.15,WSW,248,0.2,1.8,53,0.00,,,0.00,WUHU216HW,2013-03-30 03:46:00,
2013-03-29 23:50:00,39.1,23.3,30.15,WSW,248,0.0,1.8,53,0.00,,,0.00,WUHU216HW,2013-03-30 03:50:00,
2013-03-29 23:56:00,38.9,23.1,30.15,WSW,248,0.0,0.0,53,0.00,,,0.00,WUHU216HW,2013-03-30 03:56:00,